Coolangatta Observation History
Time Wind Speed Temp Pressure Rel. Hum Rain
22/07:30am CALM 0 kts 20.3°c 1015.8 hPa 77% 0.0mm
22/07:00am CALM 0 kts 19.4°c 1015.6 hPa 79% 0.0mm
22/06:30am CALM 0 kts 18.9°c 1015.3 hPa 84% 0.0mm
22/06:00am SW 3-4 kts 18.2°c 1014.9 hPa 86% 0.0mm
22/05:30am CALM 0 kts 17.9°c 1014.5 hPa 86% 0.0mm
22/05:00am SW 4-7 kts 17.7°c 1014.2 hPa 85% 0.0mm
22/04:30am SW 4-6 kts 17.6°c 1013.9 hPa 88% 0.0mm
22/04:00am SW 3 kts 17.5°c 1013.7 hPa 86% 0.0mm
22/03:30am SW 4-6 kts 17.9°c 1013.8 hPa 86% 0.0mm
22/03:00am WSW 5-6 kts 17.8°c 1013.8 hPa 84% 0.0mm
22/02:30am CALM 0-4 kts 18.4°c 1013.9 hPa 84% 0.0mm
22/02:00am CALM 0 kts 18.1°c 1014.3 hPa 85% 0.0mm
22/01:30am WSW 1-3 kts 18.0°c 1014.9 hPa 85% 0.0mm
22/01:00am WSW 6-7 kts 18.1°c 1015.5 hPa 86% 0.0mm
22/12:30am WSW 5-6 kts 17.8°c 1015.8 hPa 86% 0.0mm
22/12:00am WSW 3-4 kts 17.8°c 1016.0 hPa 83% 0.0mm
Time Wind Speed Temp Pressure Rel. Hum Rain
21/11:30pm WSW 4-5 kts 18.5°c 1016.4 hPa 81% 0.0mm
21/11:00pm WSW 6-7 kts 18.9°c 1016.5 hPa 81% 0.0mm
21/10:30pm WSW 3-4 kts 19.0°c 1016.6 hPa 80% 0.0mm
21/10:00pm SW 5-6 kts 19.0°c 1016.5 hPa 80% 0.0mm
21/09:30pm WSW 5-6 kts 19.1°c 1016.7 hPa 80% 0.0mm
21/09:00pm WSW 4-6 kts 18.9°c 1016.5 hPa 80% 0.0mm
21/08:30pm NW 5-6 kts 19.0°c 1016.7 hPa 80% 0.0mm
21/08:00pm NE 4-6 kts 20.8°c 1016.2 hPa 66% 0.0mm
21/07:30pm ENE 6-8 kts 20.9°c 1015.8 hPa 64% 0.0mm
21/07:00pm ENE 6-7 kts 21.0°c 1015.3 hPa 64% 0.0mm
21/06:30pm NE 6-8 kts 21.0°c 1015.2 hPa 64% 0.0mm
21/06:00pm ENE 6-8 kts 21.3°c 1015.1 hPa 63% 0.0mm
21/05:30pm NE 5-8 kts 21.4°c 1015.1 hPa 62% 0.0mm
21/05:00pm ENE 6-8 kts 21.5°c 1015.1 hPa 63% 0.0mm
21/04:30pm ENE 6-8 kts 21.8°c 1015.1 hPa 62% 0.0mm
21/04:00pm ENE 7-9 kts 21.8°c 1014.8 hPa 62% 0.0mm
21/03:30pm NE 7-10 kts 22.2°c 1015.0 hPa 60% 0.0mm
21/03:00pm ENE 7-10 kts 22.1°c 1015.1 hPa 60% 0.0mm
21/02:30pm ENE 8-10 kts 22.1°c 1015.2 hPa 59% 0.0mm
21/02:00pm ENE 8-12 kts 22.4°c 1015.3 hPa 58% 0.0mm
21/01:30pm ENE 9-13 kts 22.7°c 1015.4 hPa 56% 0.0mm
21/01:00pm E 10-14 kts 23.0°c 1015.5 hPa 53% 0.0mm
21/12:30pm ENE 12-15 kts 24.2°c 1015.8 hPa 49% 0.0mm
21/12:00pm E 11-14 kts 24.1°c 1016.1 hPa 47% 0.0mm
21/11:30am E 12-16 kts 24.9°c 1016.3 hPa 46% 0.0mm
21/11:00am ESE 11-14 kts 24.3°c 1016.6 hPa 48% 0.0mm
21/10:30am ESE 10-14 kts 24.1°c 1017.0 hPa 46% 0.0mm
21/10:00am SE 7-12 kts 24.4°c 1017.3 hPa 46% 0.0mm
21/09:30am S 6-9 kts 23.1°c 1017.6 hPa 50% 0.0mm
21/09:00am SSE 5-11 kts 22.8°c 1017.8 hPa 52% 0.0mm
21/08:30am S 7-12 kts 22.4°c 1017.9 hPa 53% 0.0mm
21/08:00am SW 7-11 kts 21.3°c 1017.8 hPa 56% 0.0mm
21/07:30am SSW 7-10 kts 19.8°c 1017.6 hPa 60% 0.0mm
21/07:00am SSW 8-11 kts 20.4°c 1017.4 hPa 57% 0.0mm
21/06:30am SSW 7-10 kts 19.8°c 1017.1 hPa 62% 0.0mm
21/06:00am SSW 7-9 kts 18.4°c 1016.8 hPa 66% 0.0mm
21/05:30am SW 4-6 kts 16.8°c 1016.8 hPa 73% 0.0mm
21/05:00am SW 6-10 kts 16.9°c 1016.7 hPa 72% 0.0mm
21/04:30am SW 5-8 kts 16.7°c 1016.2 hPa 74% 0.0mm
21/04:00am SSW 6-10 kts 17.1°c 1016.0 hPa 71% 0.0mm
21/03:30am SW 6-8 kts 17.3°c 1015.9 hPa 71% 0.0mm
21/03:00am SW 5-8 kts 17.5°c 1015.9 hPa 70% 0.0mm
21/02:30am SW 6-8 kts 17.9°c 1016.0 hPa 67% 0.0mm
21/02:00am SW 7-9 kts 18.1°c 1016.0 hPa 66% 0.0mm
21/01:30am SW 7-10 kts 17.9°c 1016.2 hPa 67% 0.0mm
21/01:00am SW 7-11 kts 17.8°c 1016.4 hPa 68% 0.0mm
21/12:30am SSW 6-9 kts 17.4°c 1016.5 hPa 69% 0.0mm
21/12:00am SSW 6-8 kts 17.5°c 1016.7 hPa 69% 0.0mm
Time Wind Speed Temp Pressure Rel. Hum Rain
20/11:30pm SSW 5-8 kts 17.6°c 1017.1 hPa 69% 0.0mm
20/11:00pm SSW 6-8 kts 17.6°c 1017.3 hPa 69% 0.0mm
20/10:30pm SSW 6-9 kts 17.8°c 1017.3 hPa 69% 0.0mm
20/10:00pm SSW 7-10 kts 18.0°c 1017.4 hPa 68% 0.0mm
20/09:30pm SSW 8-11 kts 18.3°c 1017.5 hPa 68% 0.0mm
20/09:00pm SSW 6-8 kts 18.1°c 1017.6 hPa 68% 0.0mm
20/08:30pm SSW 6-10 kts 18.3°c 1017.7 hPa 68% 0.0mm
20/08:00pm S 5-7 kts 18.5°c 1017.6 hPa 69% 0.0mm
20/07:30pm S 9-13 kts 19.3°c 1017.5 hPa 65% 0.0mm
20/07:00pm S 10-13 kts 19.6°c 1017.2 hPa 64% 0.0mm
20/06:30pm SSE 7-11 kts 19.5°c 1016.8 hPa 64% 0.0mm
20/06:00pm SSE 11-16 kts 20.0°c 1016.5 hPa 59% 0.0mm
20/05:30pm SSE 11-17 kts 20.9°c 1016.4 hPa 55% 0.0mm
20/05:00pm SSE 12-17 kts 21.5°c 1016.0 hPa 52% 0.0mm
20/04:30pm SSE 16-23 kts 21.6°c 1015.7 hPa 50% 0.0mm
20/04:00pm SSE 17-24 kts 21.6°c 1015.7 hPa 52% 0.0mm
20/03:30pm SE 17-25 kts 22.5°c 1015.7 hPa 52% 0.0mm
20/03:00pm SE 19-25 kts 23.0°c 1015.6 hPa 49% 0.0mm
20/02:30pm SSE 17-23 kts 23.6°c 1015.7 hPa 46% 0.0mm
20/02:00pm SSE 17-26 kts 24.0°c 1015.7 hPa 44% 0.0mm
20/01:57pm SSE 16-26 kts 23.5°c 1015.8 hPa 42% 0.0mm
20/01:30pm SE 20-26 kts 24.0°c 1015.8 hPa 40% 0.0mm
20/01:00pm SE 18-25 kts 25.1°c 1016.0 hPa 42% 0.0mm
20/12:30pm SE 18-28 kts 25.2°c 1016.1 hPa 39% 0.0mm
20/12:27pm SE 17-28 kts 24.8°c 1016.1 hPa 36% 0.0mm
20/12:00pm SSE 17-25 kts 25.3°c 1016.2 hPa 42% 0.0mm
20/11:30am SE 16-21 kts 25.2°c 1016.4 hPa 45% 0.0mm
20/11:00am S 13-18 kts 23.7°c 1016.7 hPa 47% 0.0mm
20/10:30am S 13-19 kts 24.4°c 1017.0 hPa 46% 0.0mm
20/10:00am S 14-21 kts 24.1°c 1017.2 hPa 51% 0.0mm
20/09:30am S 14-21 kts 23.4°c 1017.1 hPa 52% 0.0mm
20/09:00am S 14-19 kts 23.0°c 1017.1 hPa 55% 0.0mm
20/08:30am SSW 12-17 kts 22.6°c 1017.0 hPa 58% 0.0mm
20/08:00am SSW 12-21 kts 21.5°c 1016.8 hPa 62% 0.0mm
20/07:30am SSW 13-20 kts 20.7°c 1016.8 hPa 65% 0.0mm
20/07:00am SSW 9-14 kts 19.9°c 1016.7 hPa 69% 0.0mm
20/06:30am SSW 9-13 kts 18.7°c 1016.5 hPa 73% 0.0mm
20/06:00am SSW 9-12 kts 18.4°c 1016.3 hPa 75% 0.0mm
20/05:30am SSW 9-13 kts 18.1°c 1015.8 hPa 76% 0.0mm
20/05:00am SSW 8-11 kts 17.9°c 1015.4 hPa 77% 0.0mm
20/04:30am SSW 10-15 kts 18.0°c 1014.9 hPa 77% 0.0mm
20/04:00am SSW 9-15 kts 18.0°c 1014.6 hPa 78% 0.0mm
20/03:30am SSW 10-16 kts 18.2°c 1014.3 hPa 78% 0.0mm
20/03:00am SSW 10-15 kts 18.3°c 1014.2 hPa 78% 0.0mm
20/02:30am SSW 11-16 kts 18.5°c 1014.2 hPa 78% 0.0mm
20/02:00am SSW 9-17 kts 18.2°c 1014.3 hPa 79% 0.0mm
20/01:30am SSW 11-20 kts 18.4°c 1014.4 hPa 79% 0.0mm
20/01:00am SSW 12-17 kts 18.6°c 1014.7 hPa 79% 0.0mm
20/12:30am SSW 11-17 kts 18.6°c 1015.0 hPa 80% 0.0mm
20/12:00am SSW 14-21 kts 18.6°c 1015.1 hPa 82% 0.0mm